Regional Weather Roundup
Issued by NWS Grand Forks, ND

Home | Current Version | Previous Version | Graphics & Text | Print | Product List | Glossary On
Versions: 1 2 3 4 5 6 7 8 9 10 11 12 13 14 15 16 17 18 19 20 21 22 23 24 25 26 27 28 29 30 31 32 33 34 35 36 37 38 39 40 41 42 43 44 45 46 47 48 49 50
000
ASUS43 KFGF 310710
RWRFGF
PRAIRIE TO PINES  WEATHER ROUNDUP
NATIONAL WEATHER SERVICE EASTERN NORTH DAKOTA/GRAND FORKS ND
200 AM CDT TUE MAY 31 2016

 **SATELLITE DATA USED TO AUGMENT SKY COVER AT AUTOMATED STATIONS**
 *****  WEATHER ACROSS EASTERN NORTH DAKOTA  *****

CITY           SKY/WX    TMP DP  RH WIND       PRES   REMARKS
GRAND FORKS    CLOUDY    60  57  89 E16       29.72F
GRAND FRKS AFB DRIZZLE   59  59 100 E12       29.72F
GRAND FRKS NWS   N/A     57 N/A N/A NE9         N/A
DEVILS LAKE    LGT RAIN  58  56  93 E13       29.74F
FARGO          CLOUDY    61  59  93 SE9       29.71F
WAHPETON ARPT  CLOUDY    59  55  88 E13       29.72F
$$

 ***** WEATHER ACROSS CENTRAL AND WESTERN NORTH DAKOTA  *****

CITY           SKY/WX    TMP DP  RH WIND       PRES   REMARKS
BISMARCK       CLOUDY    56  55  97 W10       29.81F
MINOT          LGT RAIN  57  54  89 NW9       29.78F
JAMESTOWN      PTCLDY    55  55 100 E5        29.71F
MINOT AFB      NOT AVBL
GARRISON         N/A     54  53  97 NW5       29.80F
WILLISTON      LGT RAIN  51  48  89 W9        29.86S
DICKINSON      CLEAR     44  41  89 NW10      29.87F
HETTINGER      CLEAR     43  41  93 W9        29.94F
$$

 *****  OTHER AIRPORT OBSERVATIONS IN OUR AREA  *****

CITY           SKY/WX    TMP DP  RH WIND       PRES   REMARKS
WALHALLA       FAIR      61  57  88 E15G22    29.77F
GRAFTON AIRPOR LGT RAIN  59  59 100 E24G32    29.76F
VALLEY CITY AR CLOUDY    57  57 100 W7        29.75S
CANDO          NOT AVBL
CAVALIER APRT  FAIR      59  55  88 E14G22    29.76F
GWINNER        PTSUNNY   61  59  94 W7        29.76R
SHEYENNE NWR     N/A     59  58  95 SE2       29.95S
ROLLA          HVY RAIN  55  55 100 N8        29.80F
 ***** THE ABOVE OBSERVATIONS ARE NON NWS ARE NOT QUALITY
       CONTROLLED AND MAY MIS-REPORT RAIN FOR SNOW...
$$

  *****  WEATHER ACROSS NORTHERN MINNESOTA  *****

CITY           SKY/WX    TMP DP  RH WIND       PRES   REMARKS
FLAG ISLAND    CLOUDY    57  48  72 E10G22    29.91S
WARROAD        CLOUDY    61  54  77 E20       29.88F
ROSEAU         LGT RAIN  61  52  72 E15       29.86S
HALLOCK        HVY RAIN  61  57  88 E17G23    29.79F
THF RVR FALLS  CLOUDY    57  54  88 NE13      29.83F
BAUDETTE       CLOUDY    58  47  66 E16G25    29.88F
WASKISH        CLOUDY    61  52  72 E15G23    29.85S
CROOKSTON      LGT RAIN  57  57 100 E22G31    29.72F
STEPHEN NDAWN    N/A     59  55  88 E20         N/A
GREENBUSH NDAW   N/A     57  55  94 E7          N/A
$$
  *****  WEATHER ACROSS CENTRAL AND WEST MINNESOTA  *****

CITY           SKY/WX    TMP DP  RH WIND       PRES   REMARKS
FOSSTON        CLOUDY    61  55  82 SE7G18    29.83R
BEMIDJI        RAIN      60  55  82 E16       29.82S
PARK RAPIDS    CLOUDY    65  55  70 SE10      29.78F
ELBOW LAKE     LGT RAIN  60  59  96 N6        29.81F
WADENA         NOT AVBL
DETROIT LAKES  RAIN      59  57  94 SE5       29.81F
MOORHEAD       LGT RAIN  61  59  94 SE13      29.73F
FERGUS FALLS   CLOUDY    61  61 100 E3        29.78S
MORRIS MN      TSTM      61  57  88 NW8       29.81R
STAPLES        CLOUDY    63  54  72 SE8       29.79F
$$
  *****  WEATHER ELSEWHERE ACROSS MINNESOTA  *****

CITY           SKY/WX    TMP DP  RH WIND       PRES   REMARKS
DULUTH         CLOUDY    49  42  77 E28G43    29.99R
INTRNTL FALLS  CLOUDY    56  47  71 E16G23    29.94F
ELY            PTCLDY    54  45  71 E12G20    30.01S
CLOQUET        CLOUDY    54  43  66 E17G26    29.96R
WHEATON        LGT RAIN  61  59  94 NE14G20   29.74F
BRAINERD       TSTM      60  57  89 VRB6      29.84F
HIBBING        PTCLDY    54  45  71 E12G26    29.96R
ALEXANDRIA     CLOUDY    68  58  70 S15       29.79R
SAINT CLOUD    MOCLDY    68  56  65 SE9       29.82F
MINNEAPOLIS    MOCLDY    69  57  65 SE18G26   29.87F
$$

  *****  WEATHER ACROSS SOUTH DAKOTA  *****

CITY           SKY/WX    TMP DP  RH WIND       PRES   REMARKS
SIOUX FALLS    LGT RAIN  62  58  86 W6        29.82S
BROOKINGS      CLOUDY    62  59  90 S10       29.81F
WATERTOWN      CLOUDY    62  59  90 S8        29.77R
HURON          MOCLDY    59  56  89 W9        29.83R
SISSETON         N/A     59  58  96 SE7       29.72F
ABERDEEN       CLOUDY    56  54  93 W6        29.78S
MITCHELL       CLOUDY    63  59  87 W6        29.84R
PIERRE         CLOUDY    54  49  83 NW18      29.87F
MOBRIDGE       CLOUDY    57  51  80 NW18G28   29.81F
RAPID CITY     CLOUDY    53  37  54 NW17G25   30.03F
$$

  *****  SOME WEATHER IN NEARBY STATES *****

CITY           SKY/WX    TMP DP  RH WIND       PRES   REMARKS
GLASGOW MT     CLOUDY    50  46  86 W7        29.91F
GREAT FALLS MT CLEAR     41  38  89 W8        30.22S
CHEYENNE WY    CLOUDY    46  42  86 N14       30.16R
SCOTTSBLUFF NE CLOUDY    54  45  71 NW10      30.12R
OMAHA NE       CLOUDY    70  62  76 S13       29.86F
DES MOINES IA  CLOUDY    69  59  70 SE9       29.92F
DAVENPORT IA   CLOUDY    70  63  78 SW7       29.96F
CHICAGO IL     MOCLDY    68  55  63 E7        29.99S
EAU CLAIRE WI  RAIN      65  57  75 SE17      29.95R
LA CROSSE WI   LGT RAIN  66  60  81 S6        29.99S
$$

  *****  SOME NATIONAL WEATHER *****

CITY           SKY/WX    TMP DP  RH WIND       PRES   REMARKS
LA GUARDIA NY  CLOUDY    74  67  79 SW7       29.92S
RALEIGH NC     FOG       70  69  97 E3        29.93F VSB 1/2
ATLANTA GA     PTCLDY    73  59  61 NW8       29.93F
NEW ORLEANS LA PTCLDY    74  70  87 W3        29.94F
OKLAHOMA CITY  CLOUDY    67  66  97 S6        29.90F
ALBUQUERQUE NM CLOUDY    69  33  26 S9G18     29.99S
SALT LAKE CITY PTCLDY    62  43  49 SW3       30.05S
LOS ANGELES CA CLOUDY    59  55  87 W9        29.91F
BOISE ID       PTCLDY    61  34  36 NE6       30.07S
SEATTLE WA     PTCLDY    61  44  53 NE9       30.18F
$$

*** WEATHER ACROSS MANITOBA...SASKATCHEWAN AND ONTARIO ***
                ***ONTARIO***

CITY           SKY/WX    TMP DP  RH WIND       PRES   REMARKS
GERALDTON      CLEAR     39  37  93 NW2       30.14R
THUNDER BAY    CLEAR     45  43  93 CALM      30.12S
SIOUX LOOKOUT  CLEAR     48  45  87 E5        30.08S
TORONTO        PTCLDY    63  52  67 N6        29.96S
BIG TROUT LK   CLEAR     34  30  86 NE6       30.22S
PICKLE LAKE    NOT AVBL
DRYDEN         CLEAR     50  45  81 E7        30.03F
KENORA         MOCLDY    54  46  76 E14G23    29.97F
$$
                *** MANITOBA***

CITY           SKY/WX    TMP DP  RH WIND       PRES   REMARKS
BRANDON        LGT RAIN  57  54  88 E20G25    29.82S
DAUPHIN        PTCLDY    54  52  94 NE8       29.92S
ISLAND LAKE    PTCLDY    45  36  70 E12G17    30.13F
PILOT MOUND      N/A     57  54  88 E9          N/A
THE PAS        MOCLDY    52  46  82 E3        30.09S
THOMPSON       PTCLDY    41  36  81 NE5       30.20S
WINNIPEG       CLOUDY    61  50  67 E15       29.86F
LYNN LAKE      CLOUDY    45  41  87 E3        30.18S
CHURCHILL      PTCLDY    27  25  93 SE8       30.40S WCI  18
GILLAM         CLEAR     28  28 100 E8        30.30S WCI  20
$$
                ***SASKATCHEWAN***

CITY           SKY/WX    TMP DP  RH WIND       PRES   REMARKS
ESTEVAN        LGT RAIN  54  52  94 N13G18    29.83F FOG
KINDERSLEY     CLOUDY    50  48  93 N17       30.07R
LLOYDMINSTER   CLOUDY    50  48  93 NW10      30.12S
PRINCE ALBERT  MOCLDY    45  43  93 N5        30.05R
REGINA         LGT RAIN  54  52  94 NE9       29.91F
YORKTON        CLOUDY    55  50  82 NE10      29.93F
N. BATTLEFORD  CLOUDY    54  52  94 N7        30.07S
LA RONGE       LGT RAIN  50  50 100 NE6       30.10F
SASKATOON      MOCLDY    50  48  93 NE8       30.04S
SWIFT CURRENT  RAIN      50  50 100 N16G23    29.98R FOG
$$
NOTE: THESE ARE AUTOMATED STATIONS WITH LIMITED QUALITY CONTROL
      "FAIR" INDICATES FEW OR NO CLOUDS BELOW 12,000 FEET WITH NO
      SIGNIFICANT WEATHER AND/OR OBSTRUCTIONS TO VISIBILITY.
      SKY/WX - SKY CONDITION AND SIGNIFICANT WEATHER.
      TMP - AIR TEMPERATURE.    DP   - DEWPOINT TEMPERATURE.
      RH  - RELATIVE HUMIDITY.  PRES - PRESSURE.
      HX  - HEAT INDEX.         WCI  - WIND CHILL INDEX.
$




USA.gov is the U.S. government's official web portal to all federal, state and local government web resources and services.